Вернуться в каталог

SL-12 DEB

LostHEO
NORAD 27967·DEBRIS·🇷🇺 Russia

Запущен Sep 16, 1988 с Baikonur Cosmodrome

Loading…

Ближайшие Пролёты (ближайшие 24 часа)

TLE

УстаревшееSource: Space-Track

Эпоха: Nov 22, 2004, 13:45 UTC

1 27967U 88085M   04327.57302684  .00013205  00000-0  74620-1 0  9992
2 27967  65.1337  38.8598 4877416  45.9105 345.2251  5.36509938 23331

Отслеживайте SL-12 DEB в реальном времени с AllMySat

Download on the App Store